Flag Weather past 2 weeks in Leawood, Kansas, U.S.A.

Now
41 °F

Overcast.


Feels Like: 33 °F
Forecast: 28 / 41 °F
Wind: 16 mph from Northwest

Location: Johnson County Executive Airport

Current Time: Nov 26, 2014 at 12:56:31 PM

Latest Report: Nov 26, 2014 at 11:53 AM


Visibility: 10 mi

Pressure: 30.02 "Hg

Humidity: 65%

Dew point: 30 °F

Location of LeawoodLocation

Historic Weather in Leawood — Graph

°F

Leawood temperature yesterday

Maximum temperature yesterday: 42 °F (at 2:53 PM)
Minimum temperature yesterday: 23 °F (at 6:53 AM)
Average temperature yesterday: 32 °F

Past Weeks' High & Low Weather Summary

 TemperatureHumidityPressure
High59 °F (Nov 22, 1:53 PM)100% (Nov 22, 1:01 AM)30.61 "Hg (Nov 22, 1:01 AM)
Low11 °F (Nov 18, 2:53 AM)29% (Nov 25, 12:53 PM)29.31 "Hg (Nov 23, 2:53 PM)
Average31 °F65%30.15 "Hg
* Reported Nov 11 10:53 AM — Nov 26 10:53 AM, Leawood, Weather by CustomWeather, © 2014

Note: Actual official high and low records may vary slightly from our data, if they occured in-between our weather recording intervals... More about our weather records

Advertising

Leawood weather history for previous 24 hours

 ConditionsComfort  
Time TempWeatherWind HumidityBarometerVisibility
10:53 AM
Nov 26
42 °FOvercast.16 mph65%30.01 "Hg10 mi
9:53 AM42 °FBroken clouds.14 mph68%29.99 "Hg10 mi
8:53 AM40 °FScattered clouds.13 mph77%29.98 "Hg10 mi
7:53 AM37 °FSunny.5 mph86%29.97 "Hg10 mi
6:53 AM36 °FPassing clouds.6 mph92%29.96 "Hg10 mi
5:53 AM37 °FOvercast.6 mph93%29.95 "Hg10 mi
4:53 AM37 °FLight rain. Overcast.12 mph89%29.96 "Hg10 mi
4:01 AM35 °FLight snow. Fog.12 mph92%29.95 "Hg5 mi
2:53 AM38 °FMostly cloudy.8 mph55%29.95 "Hg10 mi
1:53 AM38 °FMostly cloudy.7 mph53%29.95 "Hg10 mi
12:53 AM37 °FOvercast.12 mph54%29.96 "Hg10 mi
11:53 PM
Nov 25
37 °FOvercast.12 mph54%29.99 "Hg10 mi
10:53 PM37 °FOvercast.13 mph54%30.01 "Hg10 mi
9:53 PM35 °FPassing clouds.7 mph59%30.06 "Hg10 mi
8:53 PM35 °FPassing clouds.8 mph59%30.07 "Hg10 mi
7:53 PM35 °FClear.8 mph56%30.09 "Hg10 mi
6:53 PM36 °FClear.8 mph50%30.09 "Hg10 mi
5:53 PM34 °FClear.7 mph54%30.10 "Hg10 mi
4:53 PM38 °FSunny.6 mph46%30.11 "Hg10 mi
3:53 PM42 °FSunny.9 mph36%30.12 "Hg10 mi
2:53 PM42 °FSunny.8 mph33%30.13 "Hg10 mi
1:53 PM41 °FSunny.8 mph32%30.15 "Hg10 mi
12:53 PM39 °FSunny.6 mph29%30.17 "Hg10 mi
Weather by CustomWeather, © 2014

See weather overviewHow to use our weather pages